Temp
11 10 11 11 11 11 12 12 12 11 11 11 11 12 11 11 11 10 9 9 9 9 9 9 9 9 9 9 9 9 9 9 9 9 9 8 9 8 8 8 8 9 9 9 9 9 9 9 9
11 10 11 13 12 11 12 13 13 12 12 12 12 12 12 12 11 11 9 9 9 9 9 9 9 9 9 9 9 9 9 9 9 9 8 9 9 8 8 8 8 8 9 8 9 9 9 9 9
11 10 11 11 13 13 13 12 13 13 13 13 12 11 12 12 11 11 10 10 9 10 9 9 9 9 9 9 9 9 9 9 9 9 9 9 9 8 8 8 8 8 8 9 9 9 9 9 9
12 11 12 11 14 14 13 12 13 11 11 12 12 12 11 11 11 11 10 10 10 10 9 10 9 9 9 10 9 9 9 9 9 9 9 9 8 8 8 8 8 9 9 9 9 9 9 8 8
12 12 11 11 15 14 15 14 12 11 11 11 12 10 12 10 11 11 11 10 10 10 10 9 10 10 9 10 9 9 10 10 9 9 9 8 8 8 8 8 9 8 8 9 9 9 8 8 8
13 13 13 14 16 16 14 15 14 13 13 11 12 11 11 10 11 11 11 11 10 10 10 10 10 10 10 10 10 10 10 10 9 9 8 8 8 8 8 8 8 8 8 9 8 8 8 8 8
13 12 13 15 17 16 15 14 13 13 12 12 12 12 10 10 10 10 10 10 10 10 10 10 10 10 10 10 10 10 10 9 9 9 8 8 8 8 8 8 8 8 8 8 8 8 8 8 8
13 13 13 16 15 16 16 15 14 13 12 12 12 12 11 11 10 11 10 10 10 10 10 10 10 10 10 10 10 10 10 9 9 8 9 9 9 9 9 8 8 9 8 8 9 9 8 8 7
13 13 12 15 16 17 16 15 14 13 13 12 12 12 13 11 10 10 11 10 10 10 10 10 10 10 10 10 10 10 10 9 9 8 9 9 9 9 9 8 9 9 8 9 8 8 8 8 8
14 15 14 16 16 16 16 15 14 13 13 12 12 10 11 12 11 11 12 11 10 10 10 10 10 10 10 10 10 10 9 9 9 9 9 9 10 9 9 9 9 8 8 9 8 8 7 8 8
15 17 16 15 16 16 16 16 15 14 13 13 12 11 11 11 10 12 11 12 11 11 11 11 11 11 11 10 10 9 9 9 9 8 9 9 10 9 9 9 9 9 8 8 9 9 8 8 7
16 17 16 17 17 17 16 16 15 15 14 13 13 12 12 11 11 12 12 11 11 12 12 11 11 11 11 11 10 10 9 9 9 9 9 10 10 10 9 9 9 8 8 9 10 9 9 8 7
16 17 18 17 17 17 17 16 16 15 14 14 13 12 12 12 11 11 11 11 12 12 12 12 11 12 12 11 11 10 10 10 10 10 9 9 9 9 9 9 9 9 10 10 10 8 8 8 8
17 17 18 19 17 18 18 17 16 15 15 14 14 12 11 12 11 11 11 12 12 12 12 12 12 11 12 12 12 12 12 12 10 10 9 9 9 9 9 9 9 9 9 7 8 8 7 7 8
16 17 18 19 19 18 18 17 13 15 14 14 14 13 11 10 11 10 11 12 12 12 11 12 12 12 12 12 12 11 11 10 9 9 9 9 9 9 9 9 8 8 8 8 8 9 8 9 8
16 17 17 19 19 19 18 15 15 16 15 14 13 14 12 10 10 10 10 10 11 12 14 14 13 13 13 13 12 11 11 11 10 10 9 9 9 9 9 9 9 9 8 9 8 9 9 9 9
16 16 18 19 19 19 19 16 16 15 15 14 14 14 12 11 10 10 10 10 11 13 14 14 14 13 13 12 12 11 11 11 11 11 10 10 9 9 9 9 9 10 8 10 9 9 10 10 11
16 17 17 18 19 19 19 17 16 16 15 15 14 13 13 12 11 11 11 10 11 13 14 13 14 14 13 13 12 12 11 11 11 11 11 9 9 9 10 9 10 9 10 10 10 11 11 10 10
16 17 18 19 19 19 19 18 17 16 16 15 15 14 14 13 12 11 11 12 11 13 14 14 14 14 14 13 13 13 12 11 11 10 9 11 10 10 10 10 10 10 11 11 12 11 11 11 10
16 16 17 18 20 19 19 18 18 17 17 16 15 15 14 13 13 12 11 12 14 14 14 14 14 14 14 14 13 12 12 11 11 10 11 11 11 11 11 10 11 11 11 11 11 11 11 11 11
16 16 17 17 19 18 19 18 18 17 18 16 15 16 15 14 14 13 13 13 14 14 14 14 14 14 14 14 13 12 12 12 12 12 12 11 12 11 11 11 11 11 11 11 11 11 11 11 11
16 17 17 18 18 19 17 16 16 17 16 16 15 15 16 15 14 13 13 13 14 15 14 14 14 14 14 14 14 13 12 12 11 12 12 12 12 12 12 12 11 11 11 11 10 10 10 11 10
16 17 17 18 18 19 18 19 16 17 17 16 16 15 16 16 16 15 16 16 15 14 14 15 14 14 14 14 13 13 13 12 12 12 12 12 12 12 12 11 11 11 11 11 10 10 10 10 10
17 17 18 18 18 18 19 19 19 15 17 17 17 17 17 17 16 16 17 16 15 15 15 15 15 14 14 14 14 13 13 13 13 12 13 12 12 12 12 11 11 11 11 10 10 10 10 9 9
17 17 17 16 16 15 19 19 19 19 19 18 17 16 17 15 17 16 16 17 16 17 17 17 16 15 14 14 14 14 14 13 13 13 13 13 12 12 12 11 11 11 11 10 10 10 10 9 8
17 18 17 13 15 16 20 19 20 20 20 20 18 17 17 17 16 17 18 18 18 17 16 17 17 16 15 14 14 14 14 14 14 13 13 13 12 12 12 11 11 11 11 11 10 9 10 10 9
17 18 18 18 18 17 19 20 20 20 20 20 19 18 18 18 16 16 17 18 18 18 17 17 17 17 15 15 15 15 15 14 14 13 13 13 12 12 12 11 11 11 11 11 10 10 10 10 10
17 18 18 18 14 15 18 19 20 21 21 20 19 19 18 19 17 16 17 18 18 18 18 17 17 17 16 15 15 15 15 14 14 13 13 13 12 12 12 12 11 11 11 11 10 10 10 10 10
17 17 18 18 18 15 14 18 20 20 20 20 20 19 19 19 18 17 17 18 19 19 18 18 17 17 16 16 16 15 15 14 14 13 13 13 13 13 13 12 12 11 11 10 10 10 10 9 9
18 18 18 17 17 18 17 17 19 20 20 20 21 19 20 19 19 18 17 18 18 19 18 18 18 17 17 16 16 15 15 14 14 14 13 13 13 13 13 12 12 12 11 11 10 10 10 9 9
Height
3165 3166 3163 3162 3163 3156 3157 3161 3161 3161 3159 3160 3161 3162 3162 3162 3163 3168 3167 3169 3173 3175 3178 3181 3184 3187 3190 3193 3196 3199 3201 3203 3205 3207 3209 3210 3211 3211 3212 3212 3213 3212 3213 3212 3211 3211 3211 3211 3211
3164 3165 3159 3162 3162 3160 3159 3160 3160 3161 3160 3161 3161 3162 3162 3164 3165 3165 3168 3172 3176 3179 3181 3184 3187 3190 3193 3195 3198 3201 3203 3205 3207 3209 3211 3212 3212 3213 3214 3215 3215 3215 3214 3214 3213 3213 3213 3212 3212
3164 3162 3160 3147 3160 3160 3159 3162 3161 3162 3162 3163 3161 3163 3164 3165 3169 3169 3173 3175 3178 3182 3185 3187 3190 3193 3195 3198 3201 3203 3205 3207 3209 3211 3213 3213 3214 3216 3217 3217 3217 3217 3216 3215 3215 3215 3215 3214 3214
3164 3155 3161 3150 3156 3161 3161 3162 3163 3161 3164 3163 3162 3163 3167 3171 3173 3174 3176 3178 3182 3185 3187 3190 3192 3195 3198 3200 3203 3205 3207 3209 3211 3213 3215 3215 3216 3218 3219 3219 3219 3219 3218 3217 3218 3218 3217 3216 3216
3172 3161 3157 3144 3158 3160 3159 3159 3166 3164 3165 3163 3165 3165 3169 3173 3176 3178 3180 3182 3184 3186 3189 3191 3195 3198 3200 3202 3204 3207 3209 3211 3212 3215 3217 3217 3219 3220 3220 3220 3220 3219 3219 3219 3220 3220 3219 3218 3217
3168 3167 3163 3158 3161 3162 3164 3161 3163 3164 3165 3167 3167 3167 3171 3177 3179 3180 3183 3185 3186 3189 3190 3193 3196 3199 3201 3204 3206 3208 3211 3213 3215 3217 3218 3219 3220 3221 3221 3221 3221 3220 3220 3220 3220 3221 3221 3219 3219
3169 3168 3167 3162 3165 3165 3164 3166 3168 3165 3164 3169 3171 3167 3173 3178 3180 3182 3183 3186 3189 3191 3193 3195 3198 3200 3203 3206 3208 3210 3212 3214 3216 3218 3219 3220 3221 3222 3222 3221 3221 3221 3222 3221 3220 3221 3221 3221 3220
3168 3176 3168 3167 3170 3170 3170 3165 3166 3165 3169 3172 3173 3172 3174 3178 3182 3184 3185 3187 3190 3192 3194 3197 3199 3202 3205 3207 3209 3211 3214 3215 3217 3218 3219 3221 3222 3222 3222 3223 3222 3222 3223 3222 3222 3223 3222 3222 3220
3174 3178 3180 3172 3169 3174 3173 3169 3172 3168 3168 3174 3173 3174 3176 3178 3182 3185 3185 3187 3190 3193 3195 3198 3201 3203 3206 3208 3210 3213 3215 3217 3218 3219 3221 3222 3223 3223 3223 3222 3221 3223 3221 3219 3220 3221 3222 3222 3222
3174 3175 3174 3169 3170 3173 3173 3170 3172 3171 3171 3173 3173 3177 3178 3179 3182 3185 3185 3187 3189 3192 3195 3199 3201 3204 3206 3209 3211 3213 3215 3217 3219 3220 3221 3222 3222 3223 3223 3222 3224 3222 3219 3222 3222 3222 3221 3221 3222
3171 3167 3167 3169 3167 3168 3170 3171 3172 3171 3172 3170 3171 3173 3177 3181 3183 3185 3187 3188 3190 3192 3196 3199 3202 3205 3207 3209 3211 3213 3216 3218 3219 3220 3222 3224 3224 3223 3224 3222 3224 3223 3225 3223 3221 3222 3220 3220 3218
3166 3166 3166 3163 3165 3168 3169 3171 3170 3169 3169 3170 3172 3173 3177 3181 3182 3185 3187 3189 3190 3192 3195 3199 3202 3204 3208 3209 3211 3213 3215 3217 3219 3220 3220 3222 3220 3222 3223 3224 3222 3221 3222 3222 3221 3219 3217 3216 3216
3160 3162 3161 3162 3163 3163 3166 3165 3169 3169 3169 3171 3175 3176 3177 3180 3182 3185 3187 3189 3191 3192 3196 3199 3202 3204 3208 3209 3211 3212 3214 3216 3217 3219 3220 3221 3221 3222 3223 3222 3222 3220 3220 3219 3218 3216 3217 3217 3215
3154 3157 3162 3161 3160 3160 3161 3168 3168 3169 3167 3168 3172 3176 3176 3179 3181 3185 3185 3187 3189 3192 3196 3198 3201 3204 3206 3209 3210 3211 3212 3212 3214 3216 3219 3220 3222 3222 3223 3222 3220 3218 3219 3219 3219 3218 3217 3215 3214
3153 3154 3154 3157 3161 3160 3157 3160 3170 3170 3168 3166 3171 3175 3178 3180 3181 3184 3187 3185 3188 3192 3196 3199 3201 3203 3205 3207 3209 3210 3211 3213 3213 3214 3217 3219 3219 3220 3220 3219 3219 3219 3220 3219 3217 3217 3217 3215 3213
3151 3151 3151 3151 3156 3158 3155 3159 3168 3169 3166 3167 3169 3173 3176 3179 3183 3185 3186 3186 3189 3193 3195 3198 3200 3202 3204 3206 3208 3210 3210 3213 3214 3214 3216 3217 3218 3220 3219 3219 3219 3219 3218 3217 3217 3216 3216 3215 3213
3146 3147 3147 3148 3150 3153 3154 3154 3157 3167 3165 3164 3165 3169 3173 3177 3181 3184 3186 3187 3189 3190 3194 3197 3199 3201 3203 3205 3207 3209 3210 3211 3212 3213 3214 3215 3216 3217 3218 3217 3218 3217 3216 3215 3214 3213 3213 3211 3211
3142 3144 3144 3144 3145 3146 3150 3154 3156 3161 3161 3162 3163 3165 3170 3173 3176 3180 3183 3186 3187 3188 3191 3194 3197 3200 3201 3203 3205 3206 3208 3209 3211 3211 3213 3214 3215 3216 3216 3215 3215 3214 3213 3212 3212 3211 3210 3208 3208
3140 3140 3139 3138 3145 3143 3147 3150 3153 3156 3159 3160 3160 3162 3165 3169 3173 3177 3180 3183 3185 3187 3189 3192 3193 3197 3199 3201 3202 3204 3206 3207 3208 3209 3210 3212 3213 3213 3214 3213 3213 3212 3212 3213 3211 3211 3210 3208 3206
3136 3135 3133 3135 3138 3140 3143 3146 3150 3153 3153 3156 3156 3159 3161 3165 3169 3172 3176 3178 3180 3184 3187 3190 3192 3192 3196 3198 3200 3202 3203 3204 3205 3206 3207 3208 3209 3210 3210 3211 3212 3212 3212 3212 3211 3210 3208 3207 3206
3130 3129 3128 3135 3138 3140 3141 3142 3145 3152 3152 3159 3159 3158 3159 3160 3163 3166 3170 3172 3176 3179 3183 3187 3189 3190 3192 3195 3197 3199 3199 3201 3203 3203 3203 3205 3205 3207 3209 3210 3212 3212 3213 3212 3211 3210 3209 3207 3206
3123 3125 3127 3130 3135 3134 3144 3138 3140 3145 3148 3152 3155 3158 3156 3157 3160 3162 3164 3167 3170 3173 3178 3182 3185 3187 3188 3190 3193 3195 3196 3198 3200 3201 3202 3203 3205 3207 3209 3210 3211 3212 3212 3211 3211 3212 3210 3208 3206
3115 3126 3125 3125 3128 3127 3131 3132 3134 3138 3135 3142 3146 3151 3153 3155 3156 3157 3159 3161 3165 3168 3171 3176 3180 3183 3185 3186 3189 3191 3192 3195 3197 3198 3198 3200 3203 3205 3207 3209 3210 3211 3211 3212 3213 3212 3211 3209 3207
3117 3122 3122 3122 3122 3119 3120 3128 3127 3126 3128 3133 3139 3145 3149 3153 3155 3155 3156 3159 3161 3163 3166 3169 3173 3177 3180 3183 3185 3187 3189 3192 3194 3195 3197 3199 3201 3203 3205 3208 3210 3210 3211 3211 3211 3210 3209 3207 3204
3110 3114 3114 3117 3112 3109 3114 3116 3116 3122 3124 3124 3129 3142 3146 3153 3153 3153 3153 3154 3157 3159 3161 3164 3168 3171 3174 3178 3180 3183 3186 3189 3191 3193 3195 3197 3199 3201 3204 3207 3208 3209 3209 3210 3211 3210 3207 3205 3201
3099 3105 3102 3109 3105 3105 3108 3102 3105 3112 3115 3118 3123 3131 3133 3135 3142 3147 3147 3150 3152 3155 3158 3161 3164 3167 3169 3172 3176 3178 3182 3185 3188 3190 3192 3194 3197 3199 3202 3204 3205 3206 3207 3208 3207 3206 3205 3203 3201
3094 3089 3101 3103 3104 3102 3099 3102 3104 3106 3109 3112 3117 3121 3127 3131 3136 3138 3142 3144 3147 3150 3153 3157 3160 3163 3165 3167 3172 3174 3178 3182 3184 3187 3189 3192 3195 3197 3199 3201 3202 3203 3204 3204 3204 3203 3203 3201 3200
3083 3091 3094 3092 3097 3097 3094 3094 3093 3096 3100 3105 3110 3113 3119 3123 3130 3132 3137 3140 3141 3144 3148 3153 3155 3159 3162 3163 3166 3170 3174 3178 3181 3183 3186 3189 3191 3194 3196 3197 3199 3200 3201 3201 3201 3200 3199 3198 3198
3076 3076 3083 3088 3089 3089 3094 3083 3089 3094 3094 3097 3104 3107 3109 3111 3110 3119 3128 3134 3136 3139 3143 3147 3150 3154 3156 3159 3162 3166 3170 3174 3177 3179 3183 3185 3187 3188 3191 3193 3195 3196 3196 3197 3197 3196 3195 3193 3192
3064 3069 3076 3078 3080 3082 3086 3078 3085 3092 3091 3089 3090 3096 3102 3102 3106 3112 3120 3126 3131 3134 3138 3141 3144 3148 3151 3155 3158 3161 3166 3169 3172 3175 3178 3181 3183 3185 3186 3188 3189 3191 3191 3191 3191 3191 3189 3188 3187
Wind_Speed
5 2 17 15 8 9 7 9 16 11 12 7 11 9 14 13 11 16 27 30 27 31 34 33 30 32 30 27 26 24 22 21 19 16 13 12 12 13 13 12 10 10 9 10 12 12 12 12 12
6 7 13 22 8 8 8 14 17 12 17 14 15 10 12 12 8 31 35 31 29 31 31 28 28 28 28 26 23 22 21 19 17 15 13 11 12 12 10 9 9 9 9 11 12 11 12 11 11
5 9 7 21 12 15 19 18 15 12 12 7 14 8 9 21 26 31 29 32 28 28 28 28 26 26 26 23 21 20 19 18 16 15 12 11 11 10 9 9 9 9 10 12 12 13 12 12 13
20 13 12 3 19 15 16 20 14 18 9 6 12 14 24 20 24 30 31 30 28 28 26 24 24 23 22 21 20 20 19 17 15 14 11 11 10 9 8 9 9 10 12 12 12 12 12 13 13
8 11 8 8 16 19 10 12 21 23 20 11 11 25 22 21 24 26 28 28 26 25 23 22 22 21 21 20 20 19 18 16 14 13 11 10 8 8 9 9 11 12 12 12 12 11 11 12 12
4 18 19 23 16 15 15 10 15 11 9 15 16 20 20 25 23 23 23 23 22 21 21 21 21 20 20 19 19 18 17 15 13 12 10 9 8 9 9 11 11 11 10 10 9 9 10 11 13
7 21 23 9 13 17 14 12 10 14 11 13 17 20 22 19 18 21 22 20 19 19 18 20 20 20 20 19 18 17 16 15 13 11 8 6 6 7 9 9 9 9 9 9 8 8 8 8 9
21 10 8 5 8 14 12 6 10 17 14 9 2 15 24 20 19 19 21 19 19 19 18 19 20 19 18 18 17 16 15 14 12 9 6 4 4 5 7 7 6 7 8 6 6 7 7 7 7
19 11 10 8 7 12 12 22 18 8 12 11 2 2 10 20 21 19 19 19 24 20 19 20 20 19 18 17 16 15 13 11 10 7 5 4 4 4 5 6 3 7 4 0 5 5 6 6 9
22 7 5 3 2 8 15 15 14 15 15 13 10 15 14 15 17 19 18 19 19 21 21 20 20 18 17 16 15 13 11 10 8 5 3 4 1 1 2 6 8 5 3 1 6 5 4 6 7
20 10 9 12 5 12 15 15 15 18 16 12 15 20 11 13 12 15 19 17 17 19 21 21 19 17 16 15 14 11 10 9 6 3 1 0 2 2 2 2 6 5 8 5 8 7 6 9 13
22 21 14 3 17 20 19 11 18 11 21 16 13 13 8 15 12 13 17 15 14 16 23 20 17 17 17 17 14 11 10 8 7 6 6 1 3 5 6 3 6 6 8 6 4 10 12 15 11
17 23 15 16 13 17 21 14 11 17 20 16 12 16 13 13 11 9 13 14 16 14 16 14 15 13 14 14 13 12 11 12 9 9 6 3 6 6 5 4 6 7 7 6 9 12 13 12 12
15 20 21 11 19 19 17 13 15 18 18 16 12 15 20 14 14 10 12 12 13 11 12 13 13 13 10 11 10 7 9 6 4 2 0 6 5 5 3 6 7 9 8 7 12 9 10 13 12
21 23 16 17 15 16 19 23 6 23 20 19 16 12 26 27 17 14 14 13 9 10 10 15 13 12 11 9 8 6 7 8 7 7 6 8 5 4 4 5 9 10 12 6 11 11 9 14 14
21 20 24 14 15 18 20 21 18 22 22 21 20 14 20 31 27 22 18 18 16 14 14 14 14 11 12 9 8 8 8 7 13 12 10 5 5 7 6 8 7 8 11 10 12 11 11 8 13
22 25 21 18 18 19 22 25 26 25 23 22 19 14 16 24 30 30 26 26 22 18 13 13 12 13 10 11 10 11 12 11 12 12 10 7 3 7 6 8 8 13 12 13 13 12 11 12 14
24 24 26 27 23 29 25 20 24 28 24 24 22 19 15 22 27 27 28 32 27 21 15 14 11 10 12 12 12 13 14 12 15 12 6 9 7 8 5 9 8 10 11 10 11 10 12 14 11
25 26 29 23 22 29 26 24 31 31 28 28 26 23 21 22 22 28 26 27 31 25 19 16 16 12 12 12 12 11 12 12 10 9 11 10 11 10 8 9 8 11 9 9 11 13 12 12 10
31 33 34 32 21 26 25 28 26 33 34 32 34 27 24 24 23 26 28 26 26 23 19 18 18 18 14 12 11 11 11 12 11 12 14 12 10 9 8 8 6 5 6 7 10 12 15 15 11
36 37 36 28 17 14 28 35 34 31 30 32 35 31 27 28 27 28 29 30 27 26 22 19 17 19 16 12 13 14 16 14 12 15 8 9 6 7 5 3 1 3 6 9 11 13 14 16 15
39 39 34 32 30 22 27 13 33 29 29 37 35 41 32 26 30 29 30 30 32 30 25 22 19 19 17 17 13 16 17 14 12 9 7 7 6 5 3 3 3 4 6 9 9 11 14 16 16
42 33 35 32 34 18 30 14 35 35 34 27 41 48 34 29 25 22 21 18 19 20 23 25 22 22 20 20 17 16 17 15 14 11 9 6 7 6 7 4 2 3 3 6 9 15 20 25 23
31 34 36 38 39 21 32 38 22 43 41 26 38 43 34 31 28 25 17 15 18 17 19 22 26 25 23 21 19 16 15 14 14 12 11 11 11 11 7 5 4 1 3 6 7 11 19 26 23
31 34 27 18 19 9 26 37 28 35 33 34 43 40 35 37 33 30 29 20 17 15 11 13 20 25 24 22 20 17 14 15 13 12 12 12 12 9 9 8 6 5 2 4 10 16 17 25 23
39 39 28 12 12 11 26 29 34 41 34 30 47 42 43 18 43 38 27 18 16 19 18 12 10 17 22 22 21 19 15 15 13 13 12 11 12 11 9 10 10 9 7 6 8 14 20 24 29
36 47 43 30 28 18 27 31 39 34 36 32 45 41 39 26 47 47 41 25 20 21 20 17 13 13 17 20 19 19 17 16 13 16 15 13 13 11 11 12 13 13 12 13 15 20 21 26 29
42 37 37 44 14 17 27 33 35 24 31 37 48 40 42 18 43 47 48 20 17 16 17 19 17 16 15 18 19 21 18 18 16 19 18 15 14 14 11 13 16 16 15 17 19 23 25 28 29
42 43 43 30 38 12 9 30 37 27 30 35 46 34 33 22 28 47 47 29 17 16 19 19 21 19 21 20 19 23 22 22 21 19 18 15 13 16 13 15 16 19 20 22 23 25 29 31 32
37 37 42 32 19 28 29 35 30 27 36 33 38 37 28 24 26 43 46 33 22 18 20 20 22 23 22 23 22 23 26 25 23 20 16 16 16 16 18 18 20 21 24 27 28 29 31 33 32
Wind_Direction
334 37 73 61 70 76 133 95 119 105 112 99 126 119 142 143 141 135 130 131 131 128 131 130 127 131 132 132 131 135 136 136 134 128 126 111 92 88 84 84 82 75 61 59 57 55 56 61 64
334 285 154 55 115 129 120 114 108 108 85 125 129 113 121 133 136 134 135 133 130 131 132 134 133 133 133 132 134 136 137 137 137 133 119 108 93 89 83 74 70 66 58 53 53 52 56 55 64
6 312 198 51 106 129 133 134 109 112 92 102 134 124 100 128 134 130 136 134 131 136 134 134 134 135 135 134 133 138 139 140 137 126 121 106 96 86 78 68 62 61 59 58 55 52 56 57 59
63 357 355 155 110 126 134 141 108 107 119 134 167 119 129 127 138 134 139 135 136 135 134 138 140 140 137 138 140 142 141 139 135 130 122 105 92 84 72 66 69 69 67 65 61 57 53 52 55
40 333 300 323 114 130 114 92 127 114 119 135 162 121 124 140 143 141 137 137 137 138 140 144 144 143 143 143 141 141 140 141 137 130 119 105 93 76 75 78 77 70 64 61 61 63 56 52 54
116 9 360 344 107 129 122 133 133 139 131 127 151 133 123 145 148 138 139 133 139 138 142 145 146 147 145 144 143 142 144 143 137 128 118 107 92 74 75 79 74 70 61 61 63 64 64 55 44
347 331 331 350 119 113 119 128 128 142 134 121 144 137 135 141 141 139 138 140 143 146 146 146 150 150 150 150 147 147 148 141 137 129 124 106 88 81 86 84 75 73 66 59 68 73 64 53 46
302 328 4 39 345 114 128 147 128 135 139 131 103 147 148 156 153 154 148 141 147 151 151 152 154 155 155 155 151 151 149 145 141 141 132 115 84 89 83 75 75 77 69 53 45 45 53 26 7
271 289 327 298 128 139 121 132 142 173 151 160 168 153 163 154 160 163 161 155 156 153 155 161 162 162 163 160 159 158 155 151 153 159 136 102 59 92 98 71 92 63 57 186 70 39 29 38 2
241 258 186 131 288 172 156 140 128 144 151 164 171 166 176 160 169 168 171 162 167 158 163 165 168 169 167 166 169 168 164 168 170 173 158 147 109 250 56 26 53 35 329 96 33 13 28 2 354
224 190 203 304 187 176 169 165 168 172 180 180 174 186 188 163 180 177 177 174 166 166 166 171 170 174 175 175 175 177 184 183 185 199 271 266 225 146 93 28 43 43 39 19 17 347 342 14 11
240 245 220 301 173 182 174 160 180 173 179 176 194 212 234 176 190 180 174 179 177 177 159 167 171 183 178 187 182 188 198 201 207 213 249 299 349 348 331 327 358 341 2 13 7 350 351 5 351
246 247 257 238 167 159 168 173 201 176 180 192 201 214 222 190 189 163 183 169 184 185 165 171 177 190 181 196 189 197 216 205 212 184 210 252 283 309 331 349 319 341 335 332 1 353 353 349 348
242 268 264 282 198 184 193 157 162 175 187 192 218 222 203 191 204 177 190 177 176 180 182 187 196 192 188 198 205 219 203 225 234 237 258 255 249 285 357 322 325 330 323 333 321 323 348 337 350
258 274 266 248 230 198 189 175 232 177 182 189 201 228 182 195 205 200 193 194 199 199 208 196 198 190 194 206 218 222 237 214 236 256 229 250 250 282 286 295 316 310 346 325 337 323 332 325 345
262 262 273 256 222 210 204 185 159 186 191 193 208 238 193 183 195 206 199 210 226 216 188 188 187 199 201 211 211 222 239 234 237 257 232 269 245 268 277 291 296 305 310 313 304 319 321 335 328
241 259 253 250 231 208 205 180 175 200 198 197 212 238 211 194 190 201 202 212 224 222 197 192 190 200 213 221 222 225 239 242 244 244 256 254 278 260 286 291 296 305 289 313 328 325 328 324 332
231 241 248 251 260 197 210 197 169 189 202 205 210 215 236 215 203 204 204 206 221 225 220 215 208 209 219 229 233 233 242 255 256 251 244 227 258 271 273 277 294 297 315 331 323 345 341 331 336
222 231 241 244 225 195 201 207 188 186 190 201 217 215 225 228 213 214 219 212 217 223 227 226 233 232 232 227 241 245 243 252 267 258 268 266 258 258 264 281 298 322 342 8 7 7 353 346 332
226 242 252 257 233 203 215 216 221 206 229 208 211 221 225 227 226 219 222 223 223 224 225 228 232 245 248 245 241 248 252 249 245 256 260 261 247 256 288 299 312 330 38 32 22 5 360 359 350
226 237 247 257 247 225 226 212 231 224 211 201 211 228 233 227 227 229 222 225 228 231 227 225 230 242 249 244 242 239 253 256 255 272 267 266 261 279 277 263 57 49 38 28 22 6 6 5 6
229 230 242 250 264 199 215 221 216 196 190 208 209 222 231 226 227 230 234 235 236 239 236 228 228 231 241 252 247 238 255 259 260 268 271 218 207 219 191 164 118 43 36 33 18 11 4 3 0
233 231 242 251 257 228 229 242 192 203 211 237 209 218 225 230 235 240 239 239 242 245 248 237 228 226 230 245 249 245 248 251 254 260 266 231 199 182 169 150 126 85 52 28 16 16 13 6 350
231 232 239 248 255 246 214 225 233 199 220 209 204 215 218 229 236 246 238 233 238 247 251 241 227 223 228 235 247 245 247 240 243 245 243 202 186 186 173 175 184 235 20 11 23 36 14 5 346
223 229 237 249 244 239 239 219 223 233 235 229 209 203 206 225 236 240 243 232 221 218 228 241 230 225 226 229 243 244 238 230 231 228 220 192 185 188 184 187 211 245 269 334 8 334 352 357 360
221 222 226 221 230 251 244 225 240 237 247 225 209 209 210 250 226 235 231 229 228 225 224 220 222 224 222 229 233 237 228 222 220 213 209 188 186 194 194 203 225 242 260 275 302 318 315 338 7
228 219 230 249 253 269 249 252 253 251 238 224 209 207 221 257 216 224 235 237 232 237 232 222 203 215 218 229 229 225 218 208 213 210 211 204 196 192 210 224 239 250 262 275 283 313 325 330 340
228 230 217 229 229 242 252 254 252 256 228 217 214 214 210 238 206 218 228 227 223 232 237 236 218 204 216 227 219 214 215 203 205 211 210 214 217 223 221 231 241 256 266 284 292 299 308 318 327
224 226 230 227 234 234 239 250 247 258 231 215 211 215 212 220 203 212 218 221 222 230 239 240 232 210 208 217 220 211 210 205 206 208 207 213 227 249 251 253 260 264 275 283 292 294 302 306 315
224 226 227 232 232 241 247 257 247 251 258 229 225 209 225 211 208 212 217 221 216 237 239 229 233 226 215 215 218 212 209 213 214 215 218 225 236 249 264 270 274 274 280 288 296 296 299 301 303